Starlink 30412

operational
NORAD ID: 57854 Int'l Des: 2023-141 Owner: SPXS Country: US Constellation: starlink
LEOCIRCULAR

关于 Starlink 30412

正在加载描述...

实时位置

正在加载3D地球...

即将过境

高度历史

Altitude vs Time

uPlot chart will show altitude changes over time

两行轨道根数

1 57854U 23141Q 25304.64044719 .00000539 00000-0 30319-4 0 9996
2 57854 53.1601 163.2873 0001473 89.4360 270.6809 15.30193432120570
Epoch: Oct 31, 2025 • Age: 6 hours

当前状态

高度 479.2 km
速度 7.63 km/s
星下点 -13.62°S, 147.75°E
发射日期 Sep 12, 2023
运行时间 2.1 years
类型 internet

技术详情

分类 Payload
质量 730.00 kg
干质量 700.00 kg
总质量 730.00 kg
长度 0.30 m
直径 4.10 m
跨度 29.00 m
形状 Box + pan
制造商 SPXS
平台类型 Starlink V2M
阶段状态 In Orbit
所有者/国家 SPXS/US

大型星座

Loading constellations...